IN3HNH-13 Weather Reports


time (UTC)temp
C
wind
direction
speed
KPH
gust
KPH
rain 1hr
cm
rain 24hr
cm
rain mn
cm
humidity
%
barometer
mb
20260506134546 14 162 0.0 3.2 0.00 0.23 0.23 82 1008.1
20260506133028 14 162 0.0 0.0 0.03 0.23 0.23 83 1008.0
20260506131553 14 162 0.0 0.0 0.05 0.23 0.23 85 1008.1
20260506130020 13 162 0.0 0.0 0.05 0.23 0.23 84 1008.1
20260506124541 13 162 0.0 0.0 0.05 0.23 0.23 84 1008.1
20260506123011 13 162 0.0 0.0 0.03 0.20 0.20 85 1008.0
20260506121537 13 162 0.0 0.0 0.00 0.18 0.18 84 1007.9
20260506114539 13 162 1.6 11.3 0.05 0.18 0.18 82 1008.3
20260506113108 13 162 1.6 8.0 0.05 0.18 0.18 86 1008.8
20260506111550 13 162 0.0 0.0 0.08 0.18 0.18 88 1008.8
20260506110021 13 162 0.0 0.0 0.08 0.15 0.15 90 1008.9
20260506104543 13 162 0.0 0.0 0.05 0.15 0.15 88 1008.9
20260506103016 13 162 0.0 0.0 0.05 0.13 0.13 88 1009.0
20260506101554 13 162 0.0 0.0 0.03 0.10 0.10 88 1009.0
20260506100015 13 162 0.0 0.0 0.03 0.08 0.08 87 1009.0
20260506094555 13 162 0.0 0.0 0.03 0.08 0.08 87 1009.0
20260506093009 13 162 0.0 0.0 0.03 0.08 0.08 86 1009.1
20260506091541 13 162 0.0 0.0 0.03 0.08 0.08 87 1009.3
20260506090010 13 162 0.0 0.0 0.00 0.05 0.05 87 1009.4
20260506084535 13 162 0.0 0.0 0.00 0.05 0.05 87 1009.4
20260506083005 13 162 0.0 0.0 0.00 0.05 0.05 86 1009.3
20260506081529 13 162 0.0 0.0 0.03 0.05 0.05 89 1009.2
20260506073104 12 162 0.0 0.0 0.05 0.05 0.05 91 1009.2
20260506071518 13 162 0.0 0.0 0.03 0.05 0.05 90 1009.4
20260506061523 12 162 0.0 0.0 0.00 0.03 0.03 90 1009.9
20260506050104 12 162 0.0 0.0 0.03 0.03 0.03 92 1009.6
20260506044534 12 162 0.0 0.0 0.03 0.03 0.03 92 1009.7
20260506043003 12 162 0.0 0.0 0.03 0.03 0.03 91 1009.7
20260506041546 12 162 0.0 0.0 0.00 0.00 0.00 91 1009.8
20260506040005 12 162 0.0 0.0 0.00 0.00 0.00 89 1010.0
20260506034545 12 162 0.0 0.0 0.00 0.00 0.00 88 1010.0
20260506033015 12 162 0.0 0.0 0.00 0.00 0.00 86 1010.0
20260506031557 13 162 0.0 0.0 0.00 0.00 0.00 86 1010.0
20260506030028 13 162 0.0 0.0 0.00 0.00 0.00 86 1009.9
20260506024559 13 162 0.0 0.0 0.00 0.00 0.00 86 1009.9
20260506023024 13 162 0.0 0.0 0.00 0.00 0.00 86 1010.1
20260506021558 13 162 0.0 0.0 0.00 0.00 0.00 86 1010.2
20260506020024 13 162 0.0 0.0 0.00 0.00 0.00 86 1010.5
20260506014557 13 162 0.0 0.0 0.00 0.00 0.00 86 1010.6
20260506013029 13 162 0.0 0.0 0.00 0.00 0.00 86 1010.6
20260506011558 13 162 0.0 0.0 0.00 0.00 0.00 85 1010.8
20260506010026 13 162 0.0 0.0 0.00 0.00 0.00 85 1010.6
20260506004558 13 162 0.0 0.0 0.00 0.00 0.00 85 1010.5
20260506003028 13 162 0.0 0.0 0.00 0.00 0.00 85 1010.6
20260506001618 13 162 0.0 0.0 0.00 0.00 0.00 84 1010.8
20260506000035 13 162 0.0 0.0 0.00 0.00 0.00 83 1010.8
20260505234513 13 162 0.0 0.0 0.00 0.00 0.00 85 1010.8
20260505233057 13 162 0.0 0.0 0.00 0.00 0.00 85 1011.0
20260505231549 13 162 0.0 0.0 0.00 0.00 0.00 84 1011.0
20260505230014 13 162 0.0 0.0 0.00 0.00 0.00 84 1011.0
20260505224550 13 162 0.0 0.0 0.00 0.00 0.00 84 1011.1
20260505223028 13 162 0.0 0.0 0.00 0.00 0.00 84 1011.1
20260505221602 13 162 0.0 0.0 0.00 0.00 0.00 84 1011.2
20260505220043 13 162 0.0 0.0 0.00 0.00 0.00 84 1011.3
20260505214546 13 162 0.0 0.0 0.00 0.00 0.00 83 1011.4
20260505213009 13 162 0.0 0.0 0.00 0.00 0.00 83 1011.6
20260505211614 13 162 0.0 0.0 0.00 0.00 0.00 82 1011.7
20260505210053 13 162 0.0 0.0 0.00 0.00 0.00 82 1011.6
20260505204537 14 162 3.2 11.3 0.00 0.00 0.00 81 1011.6
20260505203016 14 162 0.0 0.0 0.00 0.00 0.00 81 1011.4
20260505201503 14 162 0.0 0.0 0.00 0.00 0.00 81 1011.4
20260505200054 14 162 0.0 0.0 0.00 0.00 0.00 79 1011.4
20260505194537 14 162 0.0 0.0 0.00 0.00 0.00 77 1011.4
20260505193037 14 162 0.0 0.0 0.00 0.00 0.00 77 1011.2
20260505191603 14 162 0.0 0.0 0.00 0.00 0.00 77 1011.1
20260505190103 14 162 0.0 0.0 0.00 0.00 0.00 77 1010.9
20260505184605 14 162 0.0 0.0 0.00 0.00 0.00 77 1010.7
20260505183045 15 162 0.0 0.0 0.00 0.00 0.00 78 1010.6
20260505181518 15 162 0.0 0.0 0.00 0.00 0.00 77 1010.7
20260505180054 15 162 0.0 0.0 0.00 0.00 0.00 78 1010.7
20260505174540 15 162 0.0 0.0 0.00 0.00 0.00 77 1010.6
20260505173014 15 162 0.0 0.0 0.00 0.00 0.00 76 1010.6
20260505171505 15 162 0.0 0.0 0.00 0.00 0.00 77 1010.6
20260505170051 15 162 0.0 0.0 0.00 0.00 0.00 76 1010.7
20260505164531 15 162 0.0 0.0 0.00 0.00 0.00 75 1010.7
20260505163001 15 162 0.0 0.0 0.00 0.00 0.00 74 1010.7
20260505161540 15 162 0.0 0.0 0.00 0.00 0.00 74 1010.7
20260505153052 15 162 0.0 0.0 0.00 0.00 0.00 74 1010.9
20260505151522 15 162 0.0 0.0 0.00 0.00 0.00 74 1010.8